Location: Newark
(44.8699°N, 13.8438°E)
Time: 01:04:46
(UTC+00:00)

ISS - Visible Passes

Search period start: 21 September 2019 00:00
Search period end: 01 October 2019 00:00
Orbit: 411 x 421 km, 51.6° (Epoch: 21 September)

Date Brightness Start Highest point End Pass type
(mag) Time Alt. Az. Time Alt. Az. Time Alt. Az.
21 Sep -3.9 18:35:55 10° WSW 18:39:14 89° NNW 18:40:16 41° ENE visible
22 Sep -3.7 17:47:34 10° SW 17:50:49 57° SE 17:54:02 10° ENE visible
22 Sep -1.8 19:24:37 10° W 19:26:56 29° NW 19:26:56 29° NW visible
23 Sep -2.8 18:35:56 10° W 18:39:08 43° NNW 18:40:33 26° NE visible
24 Sep -3.4 17:47:18 10° WSW 17:50:36 62° NNW 17:53:53 10° NE visible
24 Sep -1.5 19:24:55 10° WNW 19:26:58 23° NNW 19:26:58 23° NNW visible
25 Sep -2.1 18:36:09 10° WNW 18:39:07 29° NNW 18:40:24 22° NNE visible
26 Sep -2.4 17:47:23 10° W 17:50:29 35° NNW 17:53:35 10° NE visible
26 Sep -1.2 19:25:01 10° NW 19:26:39 20° NNW 19:26:39 20° NNW visible
27 Sep -2.0 18:36:21 10° WNW 18:39:09 24° N 18:39:59 22° NNE visible
28 Sep -2.0 17:47:35 10° WNW 17:50:27 26° N 17:53:16 10° NE visible
28 Sep -1.1 19:24:51 10° NW 19:26:09 19° NW 19:26:09 19° NW visible
29 Sep -2.2 18:36:17 10° NW 18:39:09 26° N 18:39:25 26° NNE visible
30 Sep -2.0 17:47:37 10° NW 17:50:26 24° N 17:52:41 13° NE visible
30 Sep -1.0 19:24:28 10° NW 19:25:34 19° NW 19:25:34 19° NW visible
